Location: Bessat
(45.8735°N, 1.9924°E)
Time: 09:11:48
(UTC+00:00)

Cosmos 2184 Rocket - Pass Details

Date: 11 May 2021
Orbit: 958 x 1003 km, 82.9° (Epoch: 15 June)

Event Time Altitude Azimuth Distance (km) Brightness Sun altitude
Rises 21:05:16 0° 353° (N) 3,684 8.0 -16.1°
Reaches altitude 10° 21:07:50 10° 357° (N) 2,727 7.1 -16.4°
Maximum altitude 21:14:02 65° 79° (ENE) 1,055 4.0 -17.1°
Enters shadow 21:17:29 27° 154° (SSE) 1,753 4.8 -17.5°
